TimeEDT,TemperatureF,Dew PointF,Humidity,Sea Level PressureIn,VisibilityMPH,Wind Direction,Wind SpeedMPH,Gust SpeedMPH,PrecipitationIn,Events,Conditions,WindDirDegrees,DateUTC
12:15 AM,39.7,36.1,87,30.29,10.0,Calm,Calm,-,N/A,,Clear,0,2013-10-29 04:15:00
12:35 AM,39.7,36.5,88,30.29,10.0,Calm,Calm,-,N/A,,Clear,0,2013-10-29 04:35:00
12:55 AM,39.9,36.1,86,30.29,10.0,Calm,Calm,-,N/A,,Clear,0,2013-10-29 04:55:00
1:15 AM,37.4,34.2,88,30.29,7.0,Calm,Calm,-,N/A,,Clear,0,2013-10-29 05:15:00
1:35 AM,37.4,34.2,88,30.30,10.0,Calm,Calm,-,N/A,,Scattered Clouds,0,2013-10-29 05:35:00
1:55 AM,37.9,35.4,91,30.30,7.0,Calm,Calm,-,N/A,,Scattered Clouds,0,2013-10-29 05:55:00
2:15 AM,37.9,34.9,89,30.31,7.0,Calm,Calm,-,N/A,,Scattered Clouds,0,2013-10-29 06:15:00
2:35 AM,36.9,33.8,89,30.31,10.0,Calm,Calm,-,N/A,,Clear,0,2013-10-29 06:35:00
2:55 AM,36.1,32.9,88,30.31,10.0,Calm,Calm,-,N/A,,Clear,0,2013-10-29 06:55:00
3:15 AM,35.6,32.9,90,30.31,5.0,Calm,Calm,-,N/A,,Clear,0,2013-10-29 07:15:00
3:35 AM,36.1,34.0,92,30.32,5.0,Calm,Calm,-,N/A,,Scattered Clouds,0,2013-10-29 07:35:00
3:55 AM,37.2,35.1,92,30.32,5.0,Calm,Calm,-,N/A,,Overcast,0,2013-10-29 07:55:00
4:15 AM,39.2,37.2,93,30.32,7.0,Calm,Calm,-,N/A,,Overcast,0,2013-10-29 08:15:00
4:35 AM,37.8,35.4,91,30.32,7.0,Calm,Calm,-,N/A,,Scattered Clouds,0,2013-10-29 08:35:00
4:55 AM,38.3,35.8,91,30.33,7.0,Calm,Calm,-,N/A,,Scattered Clouds,0,2013-10-29 08:55:00
5:15 AM,36.5,34.0,91,30.34,5.0,Calm,Calm,-,N/A,,Clear,0,2013-10-29 09:15:00
9:55 AM,43.9,39.6,85,30.40,7.0,Calm,Calm,-,N/A,,Scattered Clouds,0,2013-10-29 13:55:00
10:35 AM,47.5,40.1,76,30.39,10.0,Calm,Calm,-,N/A,,Clear,0,2013-10-29 14:35:00
10:36 AM,48.2,39.2,71,30.39,10.0,Calm,Calm,-,N/A,,Clear,0,2013-10-29 14:36:00
10:55 AM,49.8,41.0,72,30.38,10.0,Calm,Calm,-,N/A,,Clear,0,2013-10-29 14:55:00
11:15 AM,51.1,41.2,69,30.38,10.0,Calm,Calm,-,N/A,,Clear,0,2013-10-29 15:15:00
11:35 AM,53.1,41.4,64,30.37,10.0,Calm,Calm,-,N/A,,Clear,0,2013-10-29 15:35:00
11:55 AM,54.7,41.5,61,30.37,10.0,Calm,Calm,-,N/A,,Clear,0,2013-10-29 15:55:00
12:15 PM,56.3,41.9,59,30.36,10.0,Calm,Calm,-,N/A,,Clear,0,2013-10-29 16:15:00
12:16 PM,57.2,42.8,59,30.36,10.0,Calm,Calm,-,N/A,,Clear,0,2013-10-29 16:16:00
12:35 PM,58.3,42.3,55,30.36,10.0,Calm,Calm,-,N/A,,Clear,0,2013-10-29 16:35:00
12:55 PM,59.2,42.4,54,30.35,10.0,North,3.5,-,N/A,,Clear,10,2013-10-29 16:55:00
1:15 PM,60.1,41.9,51,30.34,10.0,Calm,Calm,-,N/A,,Clear,0,2013-10-29 17:15:00
1:35 PM,61.2,41.5,48,30.33,10.0,SSE,3.5,-,N/A,,Clear,150,2013-10-29 17:35:00
1:55 PM,61.2,41.2,48,30.32,10.0,East,4.6,-,N/A,,Clear,100,2013-10-29 17:55:00
2:15 PM,62.2,41.4,46,30.32,10.0,Calm,Calm,-,N/A,,Clear,0,2013-10-29 18:15:00
2:35 PM,63.5,41.5,45,30.31,10.0,Calm,Calm,-,N/A,,Clear,0,2013-10-29 18:35:00
2:55 PM,63.7,42.4,46,30.31,10.0,East,4.6,-,N/A,,Clear,100,2013-10-29 18:55:00
3:15 PM,64.0,41.9,44,30.29,5.0,Calm,Calm,-,N/A,,Haze,0,2013-10-29 19:15:00
3:35 PM,64.0,41.9,44,30.29,10.0,East,4.6,-,N/A,,Clear,100,2013-10-29 19:35:00
3:55 PM,64.2,41.4,43,30.29,10.0,SE,3.5,-,N/A,,Clear,130,2013-10-29 19:55:00
4:15 PM,64.4,42.1,44,30.29,3.0,Calm,Calm,-,N/A,,Haze,0,2013-10-29 20:15:00
4:35 PM,63.7,41.5,44,30.28,10.0,ESE,3.5,-,N/A,,Clear,110,2013-10-29 20:35:00
4:55 PM,63.5,42.3,46,30.29,10.0,SSE,3.5,-,N/A,,Clear,160,2013-10-29 20:55:00
5:15 PM,61.9,42.1,48,30.29,10.0,SE,4.6,-,N/A,,Clear,140,2013-10-29 21:15:00
5:35 PM,60.8,42.1,50,30.30,10.0,SE,3.5,-,N/A,,Clear,140,2013-10-29 21:35:00
5:55 PM,59.7,42.3,52,30.30,10.0,ESE,3.5,-,N/A,,Clear,120,2013-10-29 21:55:00
6:15 PM,58.1,42.3,56,30.30,10.0,ESE,3.5,-,N/A,,Scattered Clouds,110,2013-10-29 22:15:00
6:35 PM,57.4,41.7,56,30.30,10.0,ESE,3.5,-,N/A,,Scattered Clouds,110,2013-10-29 22:35:00
6:55 PM,58.1,41.5,54,30.32,10.0,SE,3.5,-,N/A,,Mostly Cloudy,130,2013-10-29 22:55:00
7:15 PM,58.3,41.2,53,30.32,10.0,ESE,4.6,-,N/A,,Overcast,120,2013-10-29 23:15:00
7:35 PM,55.9,41.9,59,30.32,10.0,Calm,Calm,-,N/A,,Scattered Clouds,0,2013-10-29 23:35:00
7:55 PM,54.7,42.6,64,30.32,10.0,Calm,Calm,-,N/A,,Clear,0,2013-10-29 23:55:00
8:15 PM,49.8,43.0,77,30.33,10.0,Calm,Calm,-,N/A,,Clear,0,2013-10-30 00:15:00
8:35 PM,50.9,42.3,72,30.33,10.0,Calm,Calm,-,N/A,,Clear,0,2013-10-30 00:35:00
8:55 PM,49.3,42.3,77,30.32,10.0,Calm,Calm,-,N/A,,Clear,0,2013-10-30 00:55:00
9:15 PM,48.2,41.9,79,30.32,10.0,Calm,Calm,-,N/A,,Clear,0,2013-10-30 01:15:00
9:35 PM,47.7,41.7,80,30.33,10.0,Calm,Calm,-,N/A,,Clear,0,2013-10-30 01:35:00
9:55 PM,48.2,41.9,79,30.34,10.0,Calm,Calm,-,N/A,,Mostly Cloudy,0,2013-10-30 01:55:00
10:15 PM,48.4,42.6,80,30.34,10.0,Calm,Calm,-,N/A,,Overcast,0,2013-10-30 02:15:00
10:35 PM,48.4,43.2,82,30.34,10.0,Calm,Calm,-,N/A,,Overcast,0,2013-10-30 02:35:00
10:55 PM,49.6,43.3,79,30.34,10.0,Calm,Calm,-,N/A,,Overcast,0,2013-10-30 02:55:00
11:15 PM,49.3,43.2,79,30.34,10.0,Calm,Calm,-,N/A,,Mostly Cloudy,0,2013-10-30 03:15:00
11:35 PM,48.7,43.3,82,30.34,10.0,Calm,Calm,-,N/A,,Mostly Cloudy,0,2013-10-30 03:35:00
11:55 PM,50.5,43.7,77,30.34,10.0,Calm,Calm,-,N/A,,Overcast,0,2013-10-30 03:55:00